Time,TemperatureF,DewpointF,PressureIn,WindDirection,WindDirectionDegrees,WindSpeedMPH,WindSpeedGustMPH,Humidity,HourlyPrecipIn,Conditions,Clouds,dailyrainin,SoftwareType,DateUTC
2013-02-22 00:00:00,40.6,30.9,30.21,SE,135,0.0,0.0,68,0.11,,CLR,0.11,VWS V12.08,2013-02-22 05:00:00,
2013-02-22 00:01:00,40.6,30.9,30.21,SE,135,0.0,0.0,68,0.11,,CLR,0.11,VWS V12.08,2013-02-22 05:01:00,
2013-02-22 00:06:00,40.6,30.9,30.22,SE,135,0.0,0.0,68,0.11,,CLR,0.11,VWS V12.08,2013-02-22 05:06:00,
2013-02-22 00:11:00,39.9,30.9,30.21,SE,135,0.0,0.0,70,0.11,,CLR,0.11,VWS V12.08,2013-02-22 05:11:00,
2013-02-22 00:16:00,39.7,31.1,30.22,SE,135,0.0,0.0,71,0.13,,CLR,0.13,VWS V12.08,2013-02-22 05:16:00,
2013-02-22 00:21:00,39.4,30.8,30.22,SE,135,0.0,0.0,71,0.09,,CLR,0.13,VWS V12.08,2013-02-22 05:21:00,
2013-02-22 00:26:00,39.4,30.8,30.22,SE,135,0.0,0.0,71,0.09,,CLR,0.13,VWS V12.08,2013-02-22 05:26:00,
2013-02-22 00:31:00,39.4,31.1,30.22,SE,135,0.0,0.0,72,0.09,,CLR,0.15,VWS V12.08,2013-02-22 05:31:00,
2013-02-22 00:36:00,39.4,31.1,30.22,SE,135,0.0,0.0,72,0.09,,CLR,0.15,VWS V12.08,2013-02-22 05:36:00,
2013-02-22 00:41:00,39.0,30.8,30.22,SE,135,0.0,0.0,72,0.09,,CLR,0.15,VWS V12.08,2013-02-22 05:41:00,
2013-02-22 00:46:00,39.0,30.8,30.22,SE,135,0.0,0.0,72,0.06,,CLR,0.15,VWS V12.08,2013-02-22 05:46:00,
2013-02-22 00:51:00,38.8,30.6,30.21,SE,135,0.0,0.0,72,0.06,,CLR,0.15,VWS V12.08,2013-02-22 05:51:00,
2013-02-22 00:56:00,38.8,30.6,30.21,SE,135,0.0,0.0,72,0.09,,CLR,0.19,VWS V12.08,2013-02-22 05:56:00,
2013-02-22 01:01:00,38.8,30.9,30.21,SE,135,0.0,0.0,73,0.09,,CLR,0.19,VWS V12.08,2013-02-22 06:01:00,
2013-02-22 01:06:00,38.7,30.8,30.23,SE,135,0.0,0.0,73,0.09,,CLR,0.19,VWS V12.08,2013-02-22 06:06:00,
2013-02-22 01:11:00,38.5,30.6,30.22,SE,135,0.0,0.0,73,0.09,,CLR,0.19,VWS V12.08,2013-02-22 06:11:00,
2013-02-22 01:17:00,38.3,30.8,30.23,SE,135,0.0,0.0,74,0.09,,CLR,0.22,VWS V12.08,2013-02-22 06:17:00,
2013-02-22 01:22:00,38.3,30.8,30.24,SE,135,0.0,0.0,74,0.09,,CLR,0.22,VWS V12.08,2013-02-22 06:22:00,
2013-02-22 01:27:00,38.1,30.6,30.24,SE,135,0.0,0.0,74,0.06,,CLR,0.22,VWS V12.08,2013-02-22 06:27:00,
2013-02-22 01:32:00,37.9,30.4,30.25,SE,135,0.0,0.0,74,0.06,,CLR,0.22,VWS V12.08,2013-02-22 06:32:00,
2013-02-22 01:37:00,37.8,30.2,30.25,SE,135,0.0,0.0,74,0.06,,CLR,0.22,VWS V12.08,2013-02-22 06:37:00,
2013-02-22 01:42:00,37.8,30.2,30.25,SE,135,0.0,0.0,74,0.06,,CLR,0.22,VWS V12.08,2013-02-22 06:42:00,
2013-02-22 01:47:00,37.4,30.2,30.25,SE,135,0.0,0.0,75,0.06,,CLR,0.24,VWS V12.08,2013-02-22 06:47:00,
2013-02-22 01:52:00,37.4,30.2,30.24,SE,135,0.0,0.0,75,0.09,,CLR,0.24,VWS V12.08,2013-02-22 06:52:00,
2013-02-22 01:57:00,37.2,30.0,30.24,SE,135,0.0,0.0,75,0.06,,CLR,0.26,VWS V12.08,2013-02-22 06:57:00,
2013-02-22 02:02:00,37.2,30.0,30.24,SE,135,0.0,0.0,75,0.06,,CLR,0.26,VWS V12.08,2013-02-22 07:02:00,
2013-02-22 02:07:00,37.0,29.9,30.23,SE,135,0.0,0.0,75,0.09,,CLR,0.28,VWS V12.08,2013-02-22 07:07:00,
2013-02-22 02:12:00,37.0,29.9,30.24,SE,135,0.0,0.0,75,0.06,,CLR,0.28,VWS V12.08,2013-02-22 07:12:00,
2013-02-22 02:17:00,37.0,29.9,30.24,SE,135,0.0,0.0,75,0.06,,CLR,0.28,VWS V12.08,2013-02-22 07:17:00,
2013-02-22 02:22:00,36.7,29.5,30.24,ESE,112,0.0,0.0,75,0.06,,CLR,0.28,VWS V12.08,2013-02-22 07:22:00,
2013-02-22 02:27:00,36.7,29.8,30.24,ESE,112,0.0,0.0,76,0.06,,CLR,0.28,VWS V12.08,2013-02-22 07:27:00,
2013-02-22 02:32:00,36.3,29.5,30.23,ESE,112,0.0,0.0,76,0.06,,CLR,0.28,VWS V12.08,2013-02-22 07:32:00,
2013-02-22 02:37:00,36.1,29.3,30.22,ESE,112,0.0,0.0,76,0.09,,CLR,0.30,VWS V12.08,2013-02-22 07:37:00,
2013-02-22 02:42:00,36.1,29.3,30.21,ESE,112,0.0,0.0,76,0.11,,CLR,0.32,VWS V12.08,2013-02-22 07:42:00,
2013-02-22 02:47:00,36.0,29.5,30.22,ESE,112,0.0,0.0,77,0.11,,CLR,0.35,VWS V12.08,2013-02-22 07:47:00,
2013-02-22 02:52:00,35.8,29.3,30.22,ESE,112,0.0,0.0,77,0.11,,CLR,0.35,VWS V12.08,2013-02-22 07:52:00,
2013-02-22 02:57:00,36.0,29.8,30.23,ESE,112,0.0,0.0,78,0.09,,CLR,0.35,VWS V12.08,2013-02-22 07:57:00,
2013-02-22 03:02:00,36.1,30.0,30.22,East,90,1.3,1.3,78,0.06,,CLR,0.35,VWS V12.08,2013-02-22 08:02:00,
2013-02-22 03:07:00,36.1,30.0,30.21,East,90,0.0,1.3,78,0.09,,CLR,0.37,VWS V12.08,2013-02-22 08:07:00,
2013-02-22 03:12:00,36.1,30.0,30.21,East,90,0.0,1.3,78,0.09,,CLR,0.37,VWS V12.08,2013-02-22 08:12:00,
2013-02-22 03:17:00,36.1,30.0,30.19,East,90,0.0,1.3,78,0.09,,CLR,0.37,VWS V12.08,2013-02-22 08:17:00,
2013-02-22 03:22:00,36.1,30.0,30.19,East,90,0.0,0.0,78,0.09,,CLR,0.37,VWS V12.08,2013-02-22 08:22:00,
2013-02-22 03:27:00,36.1,30.0,30.20,NW,315,0.7,0.7,78,0.09,,CLR,0.37,VWS V12.08,2013-02-22 08:27:00,
2013-02-22 03:32:00,36.1,30.3,30.20,NE,45,0.0,0.7,79,0.06,,CLR,0.37,VWS V12.08,2013-02-22 08:32:00,
2013-02-22 03:37:00,36.1,30.3,30.20,NE,45,0.0,0.7,79,0.04,,CLR,0.37,VWS V12.08,2013-02-22 08:37:00,
2013-02-22 03:42:00,36.1,30.3,30.21,NE,45,0.0,0.0,79,0.04,,CLR,0.37,VWS V12.08,2013-02-22 08:42:00,
2013-02-22 03:47:00,36.1,30.6,30.22,NW,315,0.7,1.3,80,0.02,,CLR,0.37,VWS V12.08,2013-02-22 08:47:00,
2013-02-22 03:52:00,36.1,30.6,30.21,North,0,0.0,1.3,80,0.02,,CLR,0.37,VWS V12.08,2013-02-22 08:52:00,
2013-02-22 03:57:00,36.1,30.3,30.21,North,0,0.0,1.3,79,0.04,,CLR,0.39,VWS V12.08,2013-02-22 08:57:00,
2013-02-22 04:02:00,36.1,30.3,30.21,NNW,338,0.0,0.0,79,0.02,,CLR,0.39,VWS V12.08,2013-02-22 09:02:00,
2013-02-22 04:07:00,36.1,30.3,30.19,NNW,338,0.0,0.0,79,0.02,,CLR,0.39,VWS V12.08,2013-02-22 09:07:00,
2013-02-22 04:12:00,36.1,30.3,30.18,ENE,68,0.9,0.9,79,0.02,,CLR,0.39,VWS V12.08,2013-02-22 09:12:00,
2013-02-22 04:17:00,36.1,30.3,30.18,ENE,68,0.0,0.9,79,0.02,,CLR,0.39,VWS V12.08,2013-02-22 09:17:00,
2013-02-22 04:22:00,36.1,30.3,30.19,ENE,68,0.0,0.0,79,0.02,,CLR,0.39,VWS V12.08,2013-02-22 09:22:00,
2013-02-22 04:27:00,36.0,30.1,30.18,NNE,22,0.0,0.0,79,0.02,,CLR,0.39,VWS V12.08,2013-02-22 09:27:00,
2013-02-22 04:32:00,36.0,30.1,30.18,NNE,22,0.0,0.0,79,0.04,,CLR,0.41,VWS V12.08,2013-02-22 09:32:00,
2013-02-22 04:37:00,36.0,30.1,30.18,NE,45,0.0,0.0,79,0.04,,CLR,0.41,VWS V12.08,2013-02-22 09:37:00,
2013-02-22 04:42:00,36.0,30.1,30.18,NE,45,0.0,0.0,79,0.04,,CLR,0.41,VWS V12.08,2013-02-22 09:42:00,
2013-02-22 04:47:00,36.0,30.1,30.20,NE,45,0.0,0.0,79,0.04,,CLR,0.41,VWS V12.08,2013-02-22 09:47:00,
2013-02-22 04:52:00,36.0,30.1,30.20,NE,45,0.0,0.0,79,0.04,,CLR,0.41,VWS V12.08,2013-02-22 09:52:00,
2013-02-22 04:57:00,36.0,30.4,30.21,NE,45,0.0,0.0,80,0.02,,CLR,0.41,VWS V12.08,2013-02-22 09:57:00,
2013-02-22 05:02:00,36.1,30.6,30.22,NE,45,0.0,0.0,80,0.02,,CLR,0.41,VWS V12.08,2013-02-22 10:02:00,
2013-02-22 05:07:00,36.1,30.6,30.20,NE,45,0.0,0.0,80,0.02,,CLR,0.41,VWS V12.08,2013-02-22 10:07:00,
2013-02-22 05:12:00,36.1,30.6,30.19,NE,45,0.0,0.4,80,0.02,,CLR,0.41,VWS V12.08,2013-02-22 10:12:00,
2013-02-22 05:17:00,36.0,30.4,30.20,NE,45,0.0,0.4,80,0.04,,CLR,0.43,VWS V12.08,2013-02-22 10:17:00,
2013-02-22 05:22:00,36.0,30.4,30.20,NE,45,0.0,0.0,80,0.06,,CLR,0.45,VWS V12.08,2013-02-22 10:22:00,
2013-02-22 05:27:00,36.1,30.6,30.20,NE,45,0.0,0.0,80,0.06,,CLR,0.45,VWS V12.08,2013-02-22 10:27:00,
2013-02-22 05:32:00,36.1,30.6,30.20,NE,45,0.0,0.0,80,0.04,,CLR,0.45,VWS V12.08,2013-02-22 10:32:00,
2013-02-22 05:37:00,36.0,30.4,30.20,NE,45,0.0,0.0,80,0.04,,CLR,0.45,VWS V12.08,2013-02-22 10:37:00,
2013-02-22 05:42:00,36.1,30.6,30.20,ENE,68,0.0,0.0,80,0.04,,CLR,0.45,VWS V12.08,2013-02-22 10:42:00,
2013-02-22 05:47:00,36.1,30.6,30.21,ENE,68,0.0,0.0,80,0.04,,CLR,0.45,VWS V12.08,2013-02-22 10:47:00,
2013-02-22 05:52:00,36.0,30.4,30.20,ENE,68,0.0,0.0,80,0.04,,CLR,0.45,VWS V12.08,2013-02-22 10:52:00,
2013-02-22 05:57:00,36.1,30.6,30.20,ENE,68,0.0,0.0,80,0.06,,CLR,0.48,VWS V12.08,2013-02-22 10:57:00,
2013-02-22 06:02:00,36.1,30.6,30.20,ENE,68,0.0,0.0,80,0.06,,CLR,0.48,VWS V12.08,2013-02-22 11:02:00,
2013-02-22 06:07:00,36.1,30.6,30.21,ENE,68,0.0,0.0,80,0.06,,CLR,0.48,VWS V12.08,2013-02-22 11:07:00,
2013-02-22 06:12:00,36.1,30.6,30.22,ENE,68,0.0,0.0,80,0.04,,CLR,0.48,VWS V12.08,2013-02-22 11:12:00,
2013-02-22 06:17:00,36.1,30.6,30.22,ENE,68,0.0,0.0,80,0.04,,CLR,0.48,VWS V12.08,2013-02-22 11:17:00,
2013-02-22 06:22:00,36.1,30.9,30.22,ENE,68,0.0,0.0,81,0.04,,CLR,0.50,VWS V12.08,2013-02-22 11:22:00,
2013-02-22 06:27:00,36.1,30.9,30.23,ENE,68,0.0,0.0,81,0.04,,CLR,0.50,VWS V12.08,2013-02-22 11:27:00,
2013-02-22 06:32:00,36.1,30.9,30.22,ENE,68,0.0,0.0,81,0.04,,CLR,0.50,VWS V12.08,2013-02-22 11:32:00,
2013-02-22 06:37:00,36.1,30.9,30.23,ENE,68,0.0,0.0,81,0.04,,CLR,0.50,VWS V12.08,2013-02-22 11:37:00,
2013-02-22 06:42:00,36.1,30.6,30.22,ENE,68,0.0,0.0,80,0.04,,CLR,0.50,VWS V12.08,2013-02-22 11:42:00,
2013-02-22 06:47:00,36.1,30.6,30.22,ENE,68,0.0,0.0,80,0.04,,CLR,0.50,VWS V12.08,2013-02-22 11:47:00,
2013-02-22 06:52:00,36.1,30.6,30.22,ENE,68,0.0,0.0,80,0.04,,CLR,0.50,VWS V12.08,2013-02-22 11:52:00,
2013-02-22 06:57:00,36.1,30.9,30.22,ENE,68,0.0,0.0,81,0.02,,CLR,0.50,VWS V12.08,2013-02-22 11:57:00,
2013-02-22 07:02:00,36.1,30.9,30.23,ENE,68,0.0,0.0,81,0.02,,CLR,0.50,VWS V12.08,2013-02-22 12:02:00,
2013-02-22 07:07:00,36.1,30.9,30.23,ENE,68,0.0,0.0,81,0.04,,CLR,0.52,VWS V12.08,2013-02-22 12:07:00,
2013-02-22 07:12:00,36.1,30.9,30.23,ENE,68,0.0,0.0,81,0.04,,CLR,0.52,VWS V12.08,2013-02-22 12:12:00,
2013-02-22 07:17:00,36.1,30.9,30.22,ENE,68,0.0,0.0,81,0.04,,CLR,0.52,VWS V12.08,2013-02-22 12:17:00,
2013-02-22 07:22:00,36.1,30.9,30.23,ENE,68,0.0,0.0,81,0.02,,CLR,0.52,VWS V12.08,2013-02-22 12:22:00,
2013-02-22 07:27:00,36.1,30.9,30.22,ENE,68,0.0,0.0,81,0.02,,CLR,0.52,VWS V12.08,2013-02-22 12:27:00,
2013-02-22 07:32:00,36.1,30.9,30.23,ENE,68,0.0,0.0,81,0.02,,CLR,0.52,VWS V12.08,2013-02-22 12:32:00,
2013-02-22 07:37:00,36.1,30.9,30.23,ENE,68,0.0,0.0,81,0.02,,CLR,0.52,VWS V12.08,2013-02-22 12:37:00,
2013-02-22 07:42:00,36.3,31.1,30.23,ENE,68,0.0,0.0,81,0.02,,CLR,0.52,VWS V12.08,2013-02-22 12:42:00,
2013-02-22 07:47:00,36.1,30.9,30.22,ENE,68,0.0,0.0,81,0.02,,CLR,0.52,VWS V12.08,2013-02-22 12:47:00,
2013-02-22 07:52:00,36.1,30.9,30.22,ENE,68,0.0,0.0,81,0.02,,CLR,0.52,VWS V12.08,2013-02-22 12:52:00,
2013-02-22 07:57:00,36.3,31.1,30.22,ENE,68,0.0,0.0,81,0.02,,CLR,0.52,VWS V12.08,2013-02-22 12:57:00,
2013-02-22 08:02:00,36.3,31.1,30.21,ENE,68,0.0,0.0,81,0.00,,CLR,0.52,VWS V12.08,2013-02-22 13:02:00,
2013-02-22 08:07:00,36.5,31.2,30.22,ENE,68,0.0,0.0,81,0.00,,CLR,0.52,VWS V12.08,2013-02-22 13:07:00,
2013-02-22 08:12:00,36.3,31.1,30.22,ENE,68,0.0,0.0,81,0.00,,CLR,0.52,VWS V12.08,2013-02-22 13:12:00,
2013-02-22 08:17:00,36.5,31.2,30.21,ENE,68,0.0,0.0,81,0.00,,CLR,0.52,VWS V12.08,2013-02-22 13:17:00,
2013-02-22 08:22:00,36.5,31.2,30.21,ENE,68,0.0,0.0,81,0.00,,CLR,0.52,VWS V12.08,2013-02-22 13:22:00,
2013-02-22 08:27:00,36.7,31.4,30.21,ENE,68,0.0,1.1,81,0.00,,CLR,0.52,VWS V12.08,2013-02-22 13:27:00,
2013-02-22 08:32:00,36.7,31.4,30.21,ENE,68,0.0,1.1,81,0.00,,CLR,0.52,VWS V12.08,2013-02-22 13:32:00,
2013-02-22 08:37:00,36.7,31.4,30.22,ENE,68,0.0,1.1,81,0.00,,CLR,0.52,VWS V12.08,2013-02-22 13:37:00,
2013-02-22 08:42:00,36.9,31.6,30.22,ENE,68,0.0,0.0,81,0.00,,CLR,0.52,VWS V12.08,2013-02-22 13:42:00,
2013-02-22 08:47:00,37.0,31.8,30.22,ENE,68,0.0,0.0,81,0.00,,CLR,0.52,VWS V12.08,2013-02-22 13:47:00,
2013-02-22 08:52:00,37.2,31.9,30.22,ENE,68,0.0,0.0,81,0.00,,CLR,0.52,VWS V12.08,2013-02-22 13:52:00,
2013-02-22 08:57:00,37.2,31.6,30.22,ENE,68,0.0,0.0,80,0.00,,CLR,0.52,VWS V12.08,2013-02-22 13:57:00,
2013-02-22 09:02:00,37.2,31.6,30.22,ENE,68,0.0,0.0,80,0.00,,CLR,0.52,VWS V12.08,2013-02-22 14:02:00,
2013-02-22 09:07:00,37.2,31.6,30.21,ENE,68,0.0,0.0,80,0.00,,CLR,0.52,VWS V12.08,2013-02-22 14:07:00,
2013-02-22 09:12:00,37.2,31.6,30.22,ENE,68,0.4,0.4,80,0.00,,CLR,0.52,VWS V12.08,2013-02-22 14:12:00,
2013-02-22 09:17:00,37.4,31.8,30.22,ENE,68,0.0,0.4,80,0.00,,CLR,0.52,VWS V12.08,2013-02-22 14:17:00,
2013-02-22 09:22:00,37.4,31.8,30.22,ENE,68,0.0,0.0,80,0.00,,CLR,0.52,VWS V12.08,2013-02-22 14:22:00,
2013-02-22 09:27:00,37.4,31.8,30.22,ENE,68,0.0,0.0,80,0.00,,CLR,0.52,VWS V12.08,2013-02-22 14:27:00,
2013-02-22 09:32:00,37.6,32.0,30.22,ENE,68,0.0,0.0,80,0.00,,CLR,0.52,VWS V12.08,2013-02-22 14:32:00,
2013-02-22 09:37:00,37.6,32.0,30.22,East,90,0.0,0.0,80,0.00,,CLR,0.52,VWS V12.08,2013-02-22 14:37:00,
2013-02-22 09:42:00,37.8,32.2,30.22,East,90,0.0,0.0,80,0.00,,CLR,0.52,VWS V12.08,2013-02-22 14:42:00,
2013-02-22 09:47:00,37.8,32.2,30.22,East,90,0.0,0.0,80,0.00,,CLR,0.52,VWS V12.08,2013-02-22 14:47:00,
2013-02-22 09:52:00,37.8,32.2,30.22,East,90,0.0,0.0,80,0.00,,CLR,0.52,VWS V12.08,2013-02-22 14:52:00,
2013-02-22 09:57:00,37.8,32.2,30.22,East,90,0.0,0.0,80,0.00,,CLR,0.52,VWS V12.08,2013-02-22 14:57:00,
2013-02-22 10:02:00,37.8,32.2,30.22,East,90,0.0,0.0,80,0.00,,CLR,0.52,VWS V12.08,2013-02-22 15:02:00,
2013-02-22 10:07:00,37.8,32.2,30.22,East,90,0.0,0.0,80,0.00,,CLR,0.52,VWS V12.08,2013-02-22 15:07:00,
2013-02-22 10:12:00,37.9,32.3,30.22,East,90,0.0,0.0,80,0.00,,CLR,0.54,VWS V12.08,2013-02-22 15:12:00,
2013-02-22 10:17:00,38.1,32.5,30.22,East,90,0.0,0.0,80,0.02,,CLR,0.54,VWS V12.08,2013-02-22 15:17:00,
2013-02-22 10:22:00,38.1,32.2,30.22,East,90,0.0,0.0,79,0.02,,CLR,0.54,VWS V12.08,2013-02-22 15:22:00,
2013-02-22 10:27:00,38.3,32.4,30.22,East,90,0.0,0.7,79,0.02,,CLR,0.54,VWS V12.08,2013-02-22 15:27:00,
2013-02-22 10:32:00,38.3,32.7,30.22,East,90,0.0,0.7,80,0.02,,CLR,0.54,VWS V12.08,2013-02-22 15:32:00,
2013-02-22 10:38:00,38.3,32.4,30.22,East,90,0.0,0.7,79,0.02,,CLR,0.54,VWS V12.08,2013-02-22 15:38:00,
2013-02-22 10:43:00,38.5,32.5,30.22,ENE,68,0.0,0.0,79,0.02,,CLR,0.54,VWS V12.08,2013-02-22 15:43:00,
2013-02-22 10:48:00,38.5,32.5,30.22,ENE,68,0.0,0.0,79,0.02,,CLR,0.54,VWS V12.08,2013-02-22 15:48:00,
2013-02-22 10:53:00,38.5,32.5,30.22,ENE,68,0.0,0.0,79,0.02,,CLR,0.54,VWS V12.08,2013-02-22 15:53:00,
2013-02-22 10:58:00,38.5,32.5,30.22,ENE,68,0.0,0.0,79,0.02,,CLR,0.54,VWS V12.08,2013-02-22 15:58:00,
2013-02-22 11:03:00,38.7,32.7,30.21,ENE,68,0.0,0.0,79,0.02,,CLR,0.54,VWS V12.08,2013-02-22 16:03:00,
2013-02-22 11:08:00,38.8,32.9,30.22,East,90,0.0,0.0,79,0.02,,CLR,0.54,VWS V12.08,2013-02-22 16:08:00,
2013-02-22 11:13:00,38.8,32.9,30.22,East,90,0.0,0.0,79,0.00,,CLR,0.54,VWS V12.08,2013-02-22 16:13:00,
2013-02-22 11:18:00,38.8,32.9,30.22,East,90,0.0,0.0,79,0.00,,CLR,0.54,VWS V12.08,2013-02-22 16:18:00,
2013-02-22 11:23:00,39.4,33.7,30.22,East,90,0.0,1.1,80,0.00,,CLR,0.54,VWS V12.08,2013-02-22 16:23:00,
2013-02-22 11:28:00,39.7,34.1,30.21,East,90,0.0,1.1,80,0.00,,CLR,0.54,VWS V12.08,2013-02-22 16:28:00,
2013-02-22 11:33:00,39.9,34.3,30.22,ESE,112,1.3,1.3,80,0.00,,CLR,0.54,VWS V12.08,2013-02-22 16:33:00,
2013-02-22 11:38:00,40.3,34.3,30.21,ENE,68,1.6,1.6,79,0.00,,CLR,0.54,VWS V12.08,2013-02-22 16:38:00,
2013-02-22 11:43:00,40.5,34.5,30.21,ENE,68,0.0,0.0,79,0.00,,CLR,0.54,VWS V12.08,2013-02-22 16:43:00,
2013-02-22 11:48:00,40.6,34.7,30.21,ESE,112,0.0,0.0,79,0.00,,CLR,0.54,VWS V12.08,2013-02-22 16:48:00,
2013-02-22 11:53:00,41.0,34.7,30.21,ENE,68,0.0,0.0,78,0.00,,CLR,0.54,VWS V12.08,2013-02-22 16:53:00,
2013-02-22 11:58:00,41.0,34.7,30.20,ENE,68,0.0,0.0,78,0.00,,CLR,0.54,VWS V12.08,2013-02-22 16:58:00,
2013-02-22 12:03:00,41.0,34.3,30.20,ENE,68,0.0,0.0,77,0.00,,CLR,0.54,VWS V12.08,2013-02-22 17:03:00,
2013-02-22 12:08:00,41.2,34.5,30.20,ENE,68,1.8,1.8,77,0.00,,CLR,0.54,VWS V12.08,2013-02-22 17:08:00,
2013-02-22 12:13:00,41.2,34.5,30.19,ENE,68,1.8,1.8,77,0.00,,CLR,0.54,VWS V12.08,2013-02-22 17:13:00,
2013-02-22 12:18:00,41.4,34.7,30.19,ESE,112,1.8,1.8,77,0.00,,CLR,0.54,VWS V12.08,2013-02-22 17:18:00,
2013-02-22 12:23:00,41.5,34.9,30.19,East,90,0.0,1.8,77,0.00,,CLR,0.54,VWS V12.08,2013-02-22 17:23:00,
2013-02-22 12:28:00,41.5,34.9,30.18,NNE,22,0.0,1.8,77,0.00,,CLR,0.54,VWS V12.08,2013-02-22 17:28:00,
2013-02-22 12:33:00,41.7,34.7,30.18,ENE,68,0.0,1.8,76,0.00,,CLR,0.54,VWS V12.08,2013-02-22 17:33:00,
2013-02-22 12:38:00,41.7,34.4,30.18,ENE,68,0.0,2.2,75,0.00,,CLR,0.54,VWS V12.08,2013-02-22 17:38:00,
2013-02-22 12:43:00,41.5,34.2,30.18,NE,45,0.0,0.0,75,0.00,,CLR,0.54,VWS V12.08,2013-02-22 17:43:00,
2013-02-22 12:48:00,41.2,34.2,30.17,NE,45,1.1,1.1,76,0.00,,CLR,0.54,VWS V12.08,2013-02-22 17:48:00,
2013-02-22 12:53:00,41.2,34.2,30.17,NE,45,0.0,1.1,76,0.00,,CLR,0.54,VWS V12.08,2013-02-22 17:53:00,
2013-02-22 12:58:00,40.8,33.8,30.17,NW,315,0.0,1.1,76,0.00,,CLR,0.54,VWS V12.08,2013-02-22 17:58:00,
2013-02-22 13:03:00,40.8,33.8,30.17,NW,315,0.0,0.0,76,0.00,,CLR,0.54,VWS V12.08,2013-02-22 18:03:00,
2013-02-22 13:08:00,40.3,33.3,30.17,NW,315,0.0,0.0,76,0.00,,CLR,0.54,VWS V12.08,2013-02-22 18:08:00,
2013-02-22 13:13:00,40.6,34.0,30.17,ENE,68,0.0,0.4,77,0.00,,CLR,0.54,VWS V12.08,2013-02-22 18:13:00,
2013-02-22 13:18:00,40.6,34.0,30.16,ENE,68,0.0,0.4,77,0.00,,CLR,0.54,VWS V12.08,2013-02-22 18:18:00,
2013-02-22 13:23:00,40.8,34.2,30.17,ENE,68,0.0,0.0,77,0.00,,CLR,0.54,VWS V12.08,2013-02-22 18:23:00,
2013-02-22 13:28:00,40.6,34.0,30.16,ENE,68,0.0,0.0,77,0.00,,CLR,0.54,VWS V12.08,2013-02-22 18:28:00,
2013-02-22 13:33:00,40.6,34.0,30.15,ENE,68,0.0,0.0,77,0.00,,CLR,0.54,VWS V12.08,2013-02-22 18:33:00,
2013-02-22 13:38:00,40.6,34.0,30.15,ENE,68,0.0,0.0,77,0.00,,CLR,0.54,VWS V12.08,2013-02-22 18:38:00,
2013-02-22 13:43:00,40.8,34.2,30.15,ENE,68,0.0,0.0,77,0.00,,CLR,0.54,VWS V12.08,2013-02-22 18:43:00,
2013-02-22 13:48:00,40.8,34.2,30.15,ENE,68,0.4,0.4,77,0.00,,CLR,0.54,VWS V12.08,2013-02-22 18:48:00,
2013-02-22 13:53:00,40.6,34.0,30.15,ENE,68,0.0,0.4,77,0.00,,CLR,0.54,VWS V12.08,2013-02-22 18:53:00,
2013-02-22 13:58:00,40.5,33.8,30.15,ENE,68,2.0,2.0,77,0.00,,CLR,0.54,VWS V12.08,2013-02-22 18:58:00,
2013-02-22 14:03:00,40.6,34.0,30.15,ENE,68,0.0,0.0,77,0.00,,CLR,0.54,VWS V12.08,2013-02-22 19:03:00,
2013-02-22 14:08:00,40.6,34.0,30.15,ENE,68,0.0,0.0,77,0.00,,CLR,0.54,VWS V12.08,2013-02-22 19:08:00,
2013-02-22 14:13:00,40.5,34.2,30.14,East,90,0.0,0.0,78,0.00,,CLR,0.54,VWS V12.08,2013-02-22 19:13:00,
2013-02-22 14:18:00,40.5,34.2,30.14,ENE,68,0.0,0.0,78,0.00,,CLR,0.54,VWS V12.08,2013-02-22 19:18:00,
2013-02-22 14:23:00,40.5,34.2,30.14,ENE,68,0.0,0.0,78,0.00,,CLR,0.54,VWS V12.08,2013-02-22 19:23:00,
2013-02-22 14:28:00,40.6,34.3,30.14,ENE,68,0.0,0.0,78,0.00,,CLR,0.54,VWS V12.08,2013-02-22 19:28:00,
2013-02-22 14:33:00,40.5,34.2,30.14,ENE,68,0.0,0.0,78,0.00,,CLR,0.54,VWS V12.08,2013-02-22 19:33:00,
2013-02-22 14:38:00,40.3,34.0,30.14,ENE,68,0.0,0.0,78,0.00,,CLR,0.54,VWS V12.08,2013-02-22 19:38:00,
2013-02-22 14:43:00,40.5,34.2,30.15,ENE,68,0.0,0.0,78,0.00,,CLR,0.54,VWS V12.08,2013-02-22 19:43:00,
2013-02-22 14:48:00,40.5,34.2,30.15,ENE,68,0.0,0.0,78,0.00,,CLR,0.54,VWS V12.08,2013-02-22 19:48:00,
2013-02-22 14:53:00,40.3,34.0,30.14,East,90,0.0,0.0,78,0.00,,CLR,0.54,VWS V12.08,2013-02-22 19:53:00,
2013-02-22 14:58:00,40.3,34.0,30.14,East,90,0.0,0.0,78,0.00,,CLR,0.54,VWS V12.08,2013-02-22 19:58:00,
2013-02-22 15:03:00,40.3,34.0,30.15,East,90,0.0,0.0,78,0.00,,CLR,0.54,VWS V12.08,2013-02-22 20:03:00,
2013-02-22 15:08:00,40.5,34.2,30.14,East,90,0.0,0.0,78,0.00,,CLR,0.54,VWS V12.08,2013-02-22 20:08:00,
2013-02-22 15:13:00,40.3,34.0,30.14,East,90,0.0,0.0,78,0.00,,CLR,0.54,VWS V12.08,2013-02-22 20:13:00,
2013-02-22 15:18:00,40.1,33.8,30.14,East,90,0.0,0.0,78,0.00,,CLR,0.54,VWS V12.08,2013-02-22 20:18:00,
2013-02-22 15:23:00,40.1,33.8,30.14,East,90,0.0,0.0,78,0.00,,CLR,0.54,VWS V12.08,2013-02-22 20:23:00,
2013-02-22 15:28:00,40.1,33.8,30.14,East,90,0.0,0.0,78,0.00,,CLR,0.54,VWS V12.08,2013-02-22 20:28:00,
2013-02-22 15:33:00,39.9,33.6,30.13,East,90,0.4,0.4,78,0.00,,CLR,0.54,VWS V12.08,2013-02-22 20:33:00,
2013-02-22 15:38:00,40.1,34.1,30.13,East,90,0.0,0.4,79,0.00,,CLR,0.54,VWS V12.08,2013-02-22 20:38:00,
2013-02-22 15:43:00,40.1,34.1,30.14,East,90,0.0,0.0,79,0.00,,CLR,0.54,VWS V12.08,2013-02-22 20:43:00,
2013-02-22 15:48:00,40.1,34.1,30.14,East,90,0.0,0.0,79,0.00,,CLR,0.54,VWS V12.08,2013-02-22 20:48:00,
2013-02-22 15:53:00,40.1,34.1,30.13,East,90,0.0,1.3,79,0.00,,CLR,0.54,VWS V12.08,2013-02-22 20:53:00,
2013-02-22 15:58:00,40.3,34.3,30.14,East,90,0.0,1.3,79,0.00,,CLR,0.54,VWS V12.08,2013-02-22 20:58:00,
2013-02-22 16:03:00,39.9,34.0,30.14,ENE,68,0.0,0.0,79,0.00,,CLR,0.54,VWS V12.08,2013-02-22 21:03:00,
2013-02-22 16:08:00,39.9,34.0,30.14,ENE,68,0.0,0.0,79,0.00,,CLR,0.54,VWS V12.08,2013-02-22 21:08:00,
2013-02-22 16:13:00,39.9,34.0,30.14,East,90,0.0,0.0,79,0.00,,CLR,0.54,VWS V12.08,2013-02-22 21:13:00,
2013-02-22 16:18:00,39.7,34.1,30.13,East,90,0.0,0.0,80,0.00,,CLR,0.54,VWS V12.08,2013-02-22 21:18:00,
2013-02-22 16:23:00,39.7,34.1,30.13,East,90,0.0,0.0,80,0.00,,CLR,0.54,VWS V12.08,2013-02-22 21:23:00,
2013-02-22 16:28:00,39.9,34.3,30.12,East,90,0.0,0.0,80,0.00,,CLR,0.54,VWS V12.08,2013-02-22 21:28:00,
2013-02-22 16:33:00,39.9,34.3,30.12,East,90,0.0,0.0,80,0.00,,CLR,0.54,VWS V12.08,2013-02-22 21:33:00,
2013-02-22 16:38:00,39.9,34.3,30.13,ENE,68,0.0,0.0,80,0.00,,CLR,0.54,VWS V12.08,2013-02-22 21:38:00,
2013-02-22 16:43:00,39.9,34.3,30.13,East,90,0.0,0.0,80,0.00,,CLR,0.54,VWS V12.08,2013-02-22 21:43:00,
2013-02-22 16:48:00,39.9,34.3,30.13,East,90,0.0,0.0,80,0.00,,CLR,0.54,VWS V12.08,2013-02-22 21:48:00,
2013-02-22 16:53:00,39.7,34.1,30.13,East,90,0.0,0.0,80,0.00,,CLR,0.54,VWS V12.08,2013-02-22 21:53:00,
2013-02-22 16:58:00,39.9,34.3,30.13,East,90,0.0,0.0,80,0.00,,CLR,0.54,VWS V12.08,2013-02-22 21:58:00,
2013-02-22 17:03:00,39.9,34.3,30.13,East,90,0.0,0.0,80,0.00,,CLR,0.54,VWS V12.08,2013-02-22 22:03:00,
2013-02-22 17:09:00,39.9,34.3,30.12,East,90,0.0,0.0,80,0.00,,CLR,0.54,VWS V12.08,2013-02-22 22:09:00,
2013-02-22 17:14:00,39.9,34.3,30.12,East,90,0.0,0.0,80,0.00,,CLR,0.54,VWS V12.08,2013-02-22 22:14:00,
2013-02-22 17:19:00,39.7,34.1,30.12,East,90,0.0,0.0,80,0.00,,CLR,0.54,VWS V12.08,2013-02-22 22:19:00,
2013-02-22 17:24:00,39.7,34.1,30.11,East,90,0.0,0.0,80,0.00,,CLR,0.54,VWS V12.08,2013-02-22 22:24:00,
2013-02-22 17:29:00,39.6,33.9,30.11,East,90,0.0,0.0,80,0.00,,CLR,0.54,VWS V12.08,2013-02-22 22:29:00,
2013-02-22 17:34:00,39.4,33.7,30.11,ENE,68,0.9,0.9,80,0.00,,CLR,0.54,VWS V12.08,2013-02-22 22:34:00,
2013-02-22 17:39:00,39.4,33.7,30.11,ENE,68,0.9,0.9,80,0.00,,CLR,0.54,VWS V12.08,2013-02-22 22:39:00,
2013-02-22 17:44:00,39.0,33.4,30.11,ENE,68,0.0,0.0,80,0.00,,CLR,0.54,VWS V12.08,2013-02-22 22:44:00,
2013-02-22 17:49:00,39.0,33.4,30.11,ENE,68,0.0,0.0,80,0.00,,CLR,0.54,VWS V12.08,2013-02-22 22:49:00,
2013-02-22 17:54:00,39.0,33.4,30.11,ENE,68,1.3,1.3,80,0.00,,CLR,0.54,VWS V12.08,2013-02-22 22:54:00,
2013-02-22 17:59:00,38.8,33.5,30.12,ENE,68,0.0,1.3,81,0.00,,CLR,0.54,VWS V12.08,2013-02-22 22:59:00,
2013-02-22 18:04:00,38.8,33.5,30.12,ENE,68,0.0,0.0,81,0.00,,CLR,0.54,VWS V12.08,2013-02-22 23:04:00,
2013-02-22 18:09:00,38.8,33.5,30.12,ENE,68,0.0,0.0,81,0.00,,CLR,0.54,VWS V12.08,2013-02-22 23:09:00,
2013-02-22 18:14:00,38.8,33.5,30.12,ENE,68,0.0,0.0,81,0.00,,CLR,0.54,VWS V12.08,2013-02-22 23:14:00,
2013-02-22 18:19:00,38.8,33.5,30.11,East,90,0.0,0.0,81,0.00,,CLR,0.54,VWS V12.08,2013-02-22 23:19:00,
2013-02-22 18:24:00,38.8,33.8,30.12,East,90,0.0,0.0,82,0.00,,CLR,0.54,VWS V12.08,2013-02-22 23:24:00,
2013-02-22 18:29:00,38.7,33.3,30.12,ENE,68,0.0,0.0,81,0.00,,CLR,0.54,VWS V12.08,2013-02-22 23:29:00,
2013-02-22 18:34:00,38.7,33.3,30.12,ENE,68,0.0,0.0,81,0.00,,CLR,0.54,VWS V12.08,2013-02-22 23:34:00,
2013-02-22 18:39:00,38.5,33.2,30.11,ENE,68,0.0,0.0,81,0.00,,CLR,0.54,VWS V12.08,2013-02-22 23:39:00,
2013-02-22 18:44:00,38.5,33.2,30.12,ENE,68,0.0,0.0,81,0.00,,CLR,0.54,VWS V12.08,2013-02-22 23:44:00,
2013-02-22 18:49:00,38.5,33.2,30.12,East,90,0.0,0.0,81,0.00,,CLR,0.54,VWS V12.08,2013-02-22 23:49:00,
2013-02-22 18:54:00,38.5,33.2,30.12,East,90,0.0,0.0,81,0.00,,CLR,0.54,VWS V12.08,2013-02-22 23:54:00,
2013-02-22 18:59:00,38.5,33.2,30.12,ENE,68,0.0,0.0,81,0.00,,CLR,0.54,VWS V12.08,2013-02-22 23:59:00,
2013-02-22 19:04:00,38.5,33.5,30.12,East,90,0.0,0.0,82,0.00,,CLR,0.54,VWS V12.08,2013-02-23 00:04:00,
2013-02-22 19:09:00,38.5,33.5,30.11,ENE,68,0.4,0.4,82,0.00,,CLR,0.54,VWS V12.08,2013-02-23 00:09:00,
2013-02-22 19:14:00,38.3,33.3,30.12,ENE,68,0.0,0.4,82,0.00,,CLR,0.54,VWS V12.08,2013-02-23 00:14:00,
2013-02-22 19:19:00,38.1,33.1,30.12,ENE,68,0.0,0.4,82,0.00,,CLR,0.54,VWS V12.08,2013-02-23 00:19:00,
2013-02-22 19:24:00,38.1,33.1,30.11,ENE,68,0.0,0.0,82,0.00,,CLR,0.54,VWS V12.08,2013-02-23 00:24:00,
2013-02-22 19:29:00,37.9,33.0,30.11,ENE,68,0.0,0.0,82,0.00,,CLR,0.54,VWS V12.08,2013-02-23 00:29:00,
2013-02-22 19:34:00,37.9,33.0,30.12,ENE,68,0.0,0.0,82,0.00,,CLR,0.54,VWS V12.08,2013-02-23 00:34:00,
2013-02-22 19:39:00,37.9,33.0,30.11,ENE,68,0.0,0.0,82,0.00,,CLR,0.54,VWS V12.08,2013-02-23 00:39:00,
2013-02-22 19:44:00,37.9,33.0,30.12,ENE,68,0.0,0.0,82,0.00,,CLR,0.54,VWS V12.08,2013-02-23 00:44:00,
2013-02-22 19:49:00,37.9,33.0,30.11,ENE,68,0.0,0.0,82,0.00,,CLR,0.54,VWS V12.08,2013-02-23 00:49:00,
2013-02-22 19:54:00,37.9,33.0,30.12,East,90,0.0,0.4,82,0.00,,CLR,0.54,VWS V12.08,2013-02-23 00:54:00,
2013-02-22 19:59:00,37.8,32.8,30.11,ENE,68,0.0,0.9,82,0.00,,CLR,0.54,VWS V12.08,2013-02-23 00:59:00,
2013-02-22 20:04:00,37.8,32.8,30.12,ENE,68,0.0,0.0,82,0.00,,CLR,0.54,VWS V12.08,2013-02-23 01:04:00,
2013-02-22 20:09:00,37.8,32.8,30.11,ENE,68,0.0,0.0,82,0.00,,CLR,0.54,VWS V12.08,2013-02-23 01:09:00,
2013-02-22 20:14:00,37.8,32.8,30.12,ENE,68,0.0,0.0,82,0.00,,CLR,0.54,VWS V12.08,2013-02-23 01:14:00,
2013-02-22 20:19:00,37.8,32.8,30.12,ENE,68,0.0,0.0,82,0.00,,CLR,0.54,VWS V12.08,2013-02-23 01:19:00,
2013-02-22 20:24:00,37.6,32.6,30.12,ENE,68,0.9,0.9,82,0.00,,CLR,0.54,VWS V12.08,2013-02-23 01:24:00,
2013-02-22 20:29:00,37.4,32.4,30.12,ENE,68,0.0,0.9,82,0.00,,CLR,0.54,VWS V12.08,2013-02-23 01:29:00,
2013-02-22 20:34:00,37.4,32.4,30.12,East,90,0.0,0.9,82,0.00,,CLR,0.54,VWS V12.08,2013-02-23 01:34:00,
2013-02-22 20:39:00,37.4,32.4,30.12,ENE,68,0.0,0.9,82,0.00,,CLR,0.54,VWS V12.08,2013-02-23 01:39:00,
2013-02-22 20:44:00,37.4,32.4,30.13,ENE,68,0.0,0.0,82,0.00,,CLR,0.54,VWS V12.08,2013-02-23 01:44:00,
2013-02-22 20:49:00,37.4,32.4,30.13,ENE,68,0.0,0.0,82,0.00,,CLR,0.54,VWS V12.08,2013-02-23 01:49:00,
2013-02-22 20:54:00,37.2,32.2,30.12,ENE,68,0.0,0.0,82,0.00,,CLR,0.54,VWS V12.08,2013-02-23 01:54:00,
2013-02-22 20:59:00,37.2,32.2,30.12,ENE,68,0.0,0.0,82,0.00,,CLR,0.54,VWS V12.08,2013-02-23 01:59:00,
2013-02-22 21:04:00,37.2,32.2,30.12,ESE,112,0.0,0.0,82,0.00,,CLR,0.54,VWS V12.08,2013-02-23 02:04:00,
2013-02-22 21:09:00,37.2,32.2,30.12,East,90,0.0,0.0,82,0.00,,CLR,0.54,VWS V12.08,2013-02-23 02:09:00,
2013-02-22 21:14:00,37.2,32.5,30.12,East,90,0.0,0.0,83,0.00,,CLR,0.54,VWS V12.08,2013-02-23 02:14:00,
2013-02-22 21:19:00,37.2,32.5,30.11,East,90,0.0,0.0,83,0.00,,CLR,0.54,VWS V12.08,2013-02-23 02:19:00,
2013-02-22 21:24:00,37.2,32.5,30.12,East,90,0.0,0.0,83,0.00,,CLR,0.54,VWS V12.08,2013-02-23 02:24:00,
2013-02-22 21:29:00,37.2,32.5,30.13,East,90,0.0,0.0,83,0.00,,CLR,0.54,VWS V12.08,2013-02-23 02:29:00,
2013-02-22 21:34:00,37.2,32.5,30.12,East,90,0.0,0.0,83,0.00,,CLR,0.54,VWS V12.08,2013-02-23 02:34:00,
2013-02-22 21:39:00,37.2,32.5,30.12,East,90,0.0,0.0,83,0.00,,CLR,0.54,VWS V12.08,2013-02-23 02:39:00,
2013-02-22 21:44:00,37.2,32.5,30.12,East,90,0.0,0.0,83,0.00,,CLR,0.54,VWS V12.08,2013-02-23 02:44:00,
2013-02-22 21:49:00,37.2,32.5,30.12,East,90,0.0,0.0,83,0.00,,CLR,0.54,VWS V12.08,2013-02-23 02:49:00,
2013-02-22 21:54:00,37.2,32.5,30.13,East,90,0.0,0.0,83,0.00,,CLR,0.54,VWS V12.08,2013-02-23 02:54:00,
2013-02-22 21:59:00,37.2,32.5,30.12,ENE,68,0.0,0.9,83,0.00,,CLR,0.54,VWS V12.08,2013-02-23 02:59:00,
2013-02-22 22:04:00,37.2,32.5,30.12,ENE,68,0.0,0.0,83,0.00,,CLR,0.54,VWS V12.08,2013-02-23 03:04:00,
2013-02-22 22:09:00,37.0,32.4,30.12,ENE,68,0.0,0.0,83,0.00,,CLR,0.54,VWS V12.08,2013-02-23 03:09:00,
2013-02-22 22:14:00,37.0,32.4,30.12,East,90,0.0,0.0,83,0.00,,CLR,0.54,VWS V12.08,2013-02-23 03:14:00,
2013-02-22 22:19:00,37.0,32.4,30.12,ENE,68,0.0,0.0,83,0.00,,CLR,0.54,VWS V12.08,2013-02-23 03:19:00,
2013-02-22 22:24:00,37.0,32.4,30.11,East,90,0.0,0.0,83,0.00,,CLR,0.54,VWS V12.08,2013-02-23 03:24:00,
2013-02-22 22:29:00,37.0,32.4,30.12,ENE,68,0.0,0.0,83,0.00,,CLR,0.54,VWS V12.08,2013-02-23 03:29:00,
2013-02-22 22:34:00,37.0,32.4,30.10,ENE,68,0.0,0.0,83,0.00,,CLR,0.54,VWS V12.08,2013-02-23 03:34:00,
2013-02-22 22:39:00,37.0,32.4,30.10,ENE,68,0.0,0.0,83,0.00,,CLR,0.54,VWS V12.08,2013-02-23 03:39:00,
2013-02-22 22:44:00,36.9,32.2,30.09,ENE,68,0.4,2.5,83,0.00,,CLR,0.54,VWS V12.08,2013-02-23 03:44:00,
2013-02-22 22:49:00,36.7,31.7,30.10,ENE,68,0.0,2.5,82,0.00,,CLR,0.54,VWS V12.08,2013-02-23 03:49:00,
2013-02-22 22:54:00,36.7,31.7,30.10,NE,45,0.0,2.5,82,0.00,,CLR,0.54,VWS V12.08,2013-02-23 03:54:00,
2013-02-22 22:59:00,36.7,31.7,30.10,NE,45,0.0,2.5,82,0.00,,CLR,0.54,VWS V12.08,2013-02-23 03:59:00,
2013-02-22 23:04:00,36.5,31.5,30.09,ENE,68,0.0,0.0,82,0.00,,CLR,0.43,VWS V12.08,2013-02-23 04:04:00,
2013-02-22 23:09:00,36.5,31.8,30.09,East,90,0.0,0.7,83,0.00,,CLR,0.43,VWS V12.08,2013-02-23 04:09:00,
2013-02-22 23:14:00,36.7,32.0,30.09,East,90,0.0,0.7,83,0.00,,CLR,0.43,VWS V12.08,2013-02-23 04:14:00,
2013-02-22 23:19:00,36.7,32.0,30.09,East,90,0.0,0.7,83,0.00,,CLR,0.43,VWS V12.08,2013-02-23 04:19:00,
2013-02-22 23:24:00,36.7,32.0,30.09,ESE,112,0.0,0.0,83,0.00,,CLR,0.43,VWS V12.08,2013-02-23 04:24:00,
2013-02-22 23:29:00,36.7,32.0,30.09,East,90,0.0,0.4,83,0.02,,CLR,0.45,VWS V12.08,2013-02-23 04:29:00,
2013-02-22 23:34:00,36.7,32.0,30.09,East,90,0.0,0.4,83,0.02,,CLR,0.45,VWS V12.08,2013-02-23 04:34:00,
2013-02-22 23:39:00,36.7,32.0,30.08,East,90,0.0,0.4,83,0.02,,CLR,0.45,VWS V12.08,2013-02-23 04:39:00,
2013-02-22 23:44:00,36.7,32.0,30.08,East,90,0.0,0.0,83,0.02,,CLR,0.45,VWS V12.08,2013-02-23 04:44:00,
2013-02-22 23:49:00,36.7,32.0,30.09,East,90,0.0,0.0,83,0.02,,CLR,0.45,VWS V12.08,2013-02-23 04:49:00,
2013-02-22 23:54:00,36.7,32.0,30.10,East,90,0.0,0.0,83,0.02,,CLR,0.45,VWS V12.08,2013-02-23 04:54:00,
2013-02-22 23:59:00,36.7,32.0,30.10,East,90,0.0,0.0,83,0.02,,CLR,0.45,VWS V12.08,2013-02-23 04:59:00,